User: anonymous   Login
Location: Unspecified
(0.0000°N, 0.0000°E)
Time: 23:39:39
(UTC+00:00)
Language:

USA-164 - Orbit

View from above orbital plane
View from above orbital plane
View from above satellite
View from above satellite

Ground track
Ground track

The orbit data is extracted from the following two-line orbital elements,

1 27168U 02001A   17326.87496418 0.00000000  00000-0  00000-0 0    06
2 27168   7.8047  35.9897 0003675 241.6999 118.2644  1.00270000    00
Epoch (UTC): 22 November 2017 20:59:56
Eccentricity: 0.0003675
inclination: 7.8047°
perigee height: 35771 km
apogee height: 35802 km
right ascension of ascending node: 35.9897°
argument of perigee: 241.6999°
revolutions per day: 1.00270000
mean anomaly at epoch: 118.2644°
orbit number at epoch: 0

The dashed part of the orbit path shows where the satellite is in the earth's shadow,  

DLR